Weather in Travniki

Russia / Chelyabinsk Oblast     54°54′31″N   60°33′43″E
temp.,
°C
wind,
m/s
gust,
m/s
humid.,
%
clouds,
%
prec.,
mm/h
press.,
hPa
HPBL,
m
20 may, fri
fri2023:00+9sw51071100 0.0 1005407
02:00+6wsw5118614 1.4 1005753
05:00+5w81277100 1.4 1006952
08:00+5w5983100 0.1 10091185
11:00+10wnw6753100 0.1 10101749
14:00+12w5743100 0.0 10092452
17:00+11wnw3645100 0.0 10091595
20:00+10ne2259100 0.0 100740
21 may, sat
sat2123:00+7e2364100 0.0 100780
02:00+6e2394100 0.9 1003234
05:00+4ene4997100 6.6 1001638
08:00+4ne61397100 2.3 999811
11:00+3nne71297100 3.9 997792
14:00+4nne71197100 2.4 995801
17:00+4nne61096100 3.3 994749
20:00+4n61197100 0.8 993951
22 may, sun
sun2223:00+3nnw51198100 3.8 993795
02:00+2nw61298100 4.9 992727
05:00+2nw61297100 7.4 992840
08:00+3wnw71395100 0.9 994784
11:00+3w71192100 1.3 996962
14:00+7w7967100 0.1 9971636
17:00+7w796422 0.5 9981496
20:00+5wsw49775 0.1 1000666
23 may, mon
mon2323:00+2sw37865 0.1 1001135
02:00+2ssw4128899 0.0 1001369
05:00+2ssw3996100 0.0 1000242
08:00+6ssw4781100 0.0 1000719
11:00+8ssw5681100 0.3 999997
14:00+7ssw5686100 0.6 1000778
17:00+9sw577846 1.1 1000984
20:00+8sw36815 0.1 1002193
24 may, tue
tue2423:00+4wsw349138 0.1 100464
02:00+3sw229188 0.0 100625
05:00+4ssw368874 0.0 1007131
08:00+8sw477872 0.0 1008493
11:00+11ssw4569100 0.2 10081181
14:00+13ssw466389 0.4 10081539
17:00+13s566654 0.6 10081038
20:00+11sse4689100 0.0 1009277